Newark, NJ

1:18 AM EST on February 27, 2017 (GMT -0500)
Newark International

Weather History for KEWR - June, 2013

Change the Weather History Date:

Sunday, June 23, 2013

  Actual Average Record
Temperature  
Mean Temperature 78 °F 75 °F  
Max Temperature 89 °F 84 °F 97 °F (1965)
Min Temperature 67 °F 66 °F 51 °F (1992)
Degree Days  
Heating Degree Days 0 0  
Month to date heating degree days 8 15  
Since 1 June heating degree days 8 15  
Since 1 July heating degree days 4639 4870  
Cooling Degree Days 13 10  
Month to date cooling degree days 151 164  
Year to date cooling degree days 251 240  
Since 1 June cooling degree days 151 164  
Growing Degree Days 28 (Base 50)    
Moisture  
Dew Point 66 °F    
Average Humidity 72    
Maximum Humidity 93    
Minimum Humidity 50    
Precipitation  
Precipitation T in 0.13 in 1.10 in (2001)
Month to date precipitation 8.29 3.15  
Year to date precipitation 24.54 22.04  
Snow  
Snow 0.00 in 0.00 in 0.00 in (2002)
Month to date snowfall 0.0 0.0  
Since 1 July snowfall 29.5 28.5  
Snow Depth 0.00 in    
Sea Level Pressure  
Sea Level Pressure 30.13 in    
Wind  
Wind Speed 9 mph (SSW)    
Max Wind Speed 21 mph    
Max Gust Speed 26 mph    
Visibility 10 miles    
Events Rain    
T = Trace of Precipitation, MM = Missing Value Source: NWS Daily Summary

Daily Weather History Graph

Daily Weather History Graph

Search for Another Location

Airport or City:

Trip Planner

Search our weather history database for the weather conditions in past years. The results will help you decide how hot, cold, wet, or windy it might be!

Date:

Astronomy

Jun. 23, 2013 Rise Set
Actual Time 5:26 AM EDT 8:31 PM EDT
Civil Twilight 4:52 AM EDT 9:05 PM EDT
Nautical Twilight 4:10 AM EDT 9:47 PM EDT
Astronomical Twilight 3:19 AM EDT 10:37 PM EDT
Moon 8:41 PM EDT (6/23) 5:41 AM EDT (6/23)
Length of Visible Light 16h 12m
Length of Day
15h 05m
Full, 100% of the Moon is Illuminated
Jun 23
Full
Jun 30
Last Quarter
Jul 8
New
Jul 15
First Quarter
Jul 22
Full

Hourly Weather History & Observations

Time (EDT) Temp. Heat Index Dew Point Humidity Pressure Visibility Wind Dir Wind Speed Gust Speed Precip Events Conditions
12:51 AM 69.1 °F - 60.1 °F 73% 30.18 in 10.0 mi South 5.8 mph - N/A   Partly Cloudy
1:51 AM 71.1 °F - 61.0 °F 70% 30.18 in 10.0 mi SW 11.5 mph - N/A   Partly Cloudy
2:51 AM 69.1 °F - 60.1 °F 73% 30.17 in 10.0 mi SSW 4.6 mph - N/A   Scattered Clouds
3:51 AM 69.1 °F - 60.1 °F 73% 30.16 in 10.0 mi SW 6.9 mph - N/A   Scattered Clouds
4:51 AM 68.0 °F - 60.1 °F 76% 30.17 in 10.0 mi SW 6.9 mph - N/A   Partly Cloudy
5:51 AM 66.9 °F - 61.0 °F 81% 30.17 in 10.0 mi SW 5.8 mph - N/A   Partly Cloudy
6:51 AM 69.1 °F - 62.1 °F 78% 30.18 in 10.0 mi SSW 8.1 mph - N/A   Scattered Clouds
7:51 AM 73.0 °F - 63.0 °F 71% 30.19 in 10.0 mi SW 8.1 mph - N/A   Scattered Clouds
8:51 AM 75.9 °F - 66.0 °F 71% 30.19 in 10.0 mi SW 8.1 mph - N/A   Scattered Clouds
9:51 AM 80.1 °F 82.1 °F 66.0 °F 62% 30.18 in 10.0 mi SW 6.9 mph - N/A   Scattered Clouds
10:51 AM 84.0 °F 86.3 °F 66.0 °F 55% 30.17 in 10.0 mi WSW 10.4 mph - N/A   Mostly Cloudy
11:51 AM 84.0 °F 87.0 °F 68.0 °F 58% 30.16 in 10.0 mi Variable 4.6 mph - N/A   Mostly Cloudy
12:51 PM 87.1 °F 89.9 °F 66.9 °F 51% 30.13 in 10.0 mi SW 12.7 mph 21.9 mph N/A   Mostly Cloudy
1:51 PM 86.0 °F 88.2 °F 66.0 °F 51% 30.12 in 10.0 mi SW 11.5 mph 19.6 mph N/A   Mostly Cloudy
2:51 PM 88.0 °F 90.7 °F 66.9 °F 49% 30.10 in 10.0 mi SSW 16.1 mph 20.7 mph N/A   Mostly Cloudy
3:51 PM 86.0 °F 88.2 °F 66.0 °F 51% 30.08 in 10.0 mi South 13.8 mph 20.7 mph N/A   Mostly Cloudy
4:51 PM 82.9 °F 85.8 °F 68.0 °F 60% 30.08 in 10.0 mi SSW 15.0 mph - 0.00 in   Mostly Cloudy
5:51 PM 84.0 °F 88.4 °F 70.0 °F 63% 30.07 in 10.0 mi SSE 11.5 mph - 0.00 in   Mostly Cloudy
6:51 PM 82.0 °F 86.3 °F 71.1 °F 69% 30.06 in 10.0 mi South 10.4 mph - 0.00 in Rain Light Rain
7:51 PM 80.1 °F 83.2 °F 70.0 °F 71% 30.06 in 10.0 mi West 6.9 mph - 0.00 in   Mostly Cloudy
8:51 PM 80.1 °F 83.6 °F 71.1 °F 74% 30.07 in 10.0 mi SSE 4.6 mph - N/A   Mostly Cloudy
9:51 PM 77.0 °F - 72.0 °F 84% 30.08 in 10.0 mi South 9.2 mph - 0.00 in Rain Light Rain
10:51 PM 75.0 °F - 71.1 °F 87% 30.08 in 10.0 mi SW 11.5 mph 18.4 mph 0.00 in   Mostly Cloudy
11:01 PM 75.2 °F - 71.6 °F 89% 30.08 in 10.0 mi SW 13.8 mph - N/A   Mostly Cloudy
11:17 PM 75.2 °F - 71.6 °F 89% 30.08 in 10.0 mi SSW 10.4 mph - N/A   Mostly Cloudy
11:47 PM 73.4 °F - 71.6 °F 94% 30.08 in 10.0 mi SW 8.1 mph - N/A   Mostly Cloudy
11:51 PM 73.9 °F - 72.0 °F 93% 30.08 in 10.0 mi SW 6.9 mph - N/A   Mostly Cloudy